Showing default

KUIPER-00458, 68950

Orbit data source: Space-Track

KUIPER-00458, 68950 is a payload satellite owned by Kuiper Systems (US) in LEO that was launched on Thu, 30 Apr 2026 UTC via an ARIANE 64 launch vehicle from the Air Force Eastern Test Range (AFETR). Payload-class satellites include a variety of spacecraft equipped with specific instruments for various scientific and technological missions. These include communications satellites like Starlink; space stations such as the ISS; scientific satellites like the Hubble; Earth observation satellites from companies like Planet Labs, Umbra, and HawkEye 360; GPS; miniature CubeSats for education and research; and military/defense satellites.

Loading next visibility...
Identifier
68950, 2026-098AH
Orbit
LEO
Country
Flag of USUS
Related business
Manufacturer
Kuiper Systems
Mission
Operational spacecraft
Bus & Motor
KUIPER, Unknown motor
Mass
~490 kg wet, ~490 kg dry
Launch date (UTC)
2026-04-30 (6 days ago)
Launch vehicle
ARIANE 64
Launch site
Air Force Eastern Test Range (AFETR)
Object type
Payload
Rocket body
Debris
Shape & HBR
Unknown
Radar Cross Section
RCS unknown

Expand to show TLE details & history
Last TLE update: 6 hours ago

TLE from 6 hours ago
0 KUIPER-00458
1 68950U 26098AH  26126.25002315  .00056448  00000-0  15968-2 0  9996
2 68950  51.8768 269.7272 0002122  14.4810  89.0852 15.35765007  1838
Epoch: 2026-05-06T06:00Z
TLE epoch observation values (Epoch: 2026-05-06T06:00:02.000Z)
Latitude
50.02884°
Longitude
67.0136°
Altitude
464.312 km
Speed
7.641 km/s
True Right ascension
01h 24m 32s
True Declination
49° 51' 08"
Sunlit
Object was in daylight at epoch
Visualization orbit readout
Latitude
Unknown
Longitude
Unknown
Altitude
Unknown
Speed
Unknown
Apparent Right ascension
Unknown
Apparent Declination
Unknown
Sunlit
N/A
Visualization observer readout
Local Sidereal Time
19:38:17
Azimuth
Unknown
Elevation
Unknown
Doppler factor
Unknown
Orbital elements
Apogee altitude
460.566 km
Perigee altitude
457.664 km
Semi-major axis
6,837.252 km
Eccentricity
0.00021
Inclination
51.8768°
RAAN
269.7272°
Arg. of periapsis
14.481°
True anomaly
89.10951°
Mean anomaly
89.0852°
Eccentric anomaly
89.09736°
Mean motion
3.83902 °/min
Orbital period
93.77 mins
BSTAR
0.0015968
Loading maneuver chart data...
Computing Atmospheric mass density...
Loading historical data...
Loading historical data...
Loading historical data...
Loading historical data...
Loading historical data...
Loading historical data...
Loading historical data...

Documentation

Showing up to 5 results
|